Flag for Jordan Weather past 2 weeks in Zarqa, Jordan

Now
61 °F

Haze.


Feels Like: 61 °F
Forecast: 57 / 88 °F
Wind: No wind

Location: Amman Airport

Current Time: May 5, 2015 at 10:22:09 AM

Latest Report: May 5, 2015 at 9:00 AM


Visibility: 2 mi

Pressure: 29.95 "Hg

Humidity: 72%

Dew point: 52 °F

Location of ZarqaLocation

Historic Weather in Zarqa — Graph

°F

Zarqa temperature yesterday

Maximum temperature yesterday: 72 °F (at 2:00 PM)
Minimum temperature yesterday: 55 °F (at 6:00 AM)
Average temperature yesterday: 63 °F

Past Weeks' High & Low Weather Summary

 TemperatureHumidityPressure
High93 °F (Apr 29, 2:00 PM)87% (Apr 25, 6:00 AM)30.27 "Hg (Apr 25, 6:00 AM)
Low41 °F (Apr 25, 5:00 AM)10% (Apr 26, 2:00 PM)29.89 "Hg (Apr 21, 3:00 AM)
Average65 °F37%30.01 "Hg
* Reported Apr 20 9:00 AM — May 5 9:00 AM, Zarqa, Weather by CustomWeather, © 2015

Note: Actual official high and low records may vary slightly from our data, if they occured in-between our weather recording intervals... More about our weather records

Advertising

Zarqa weather history for previous 24 hours

 ConditionsComfort  
Time TempWeatherWind HumidityBarometerVisibility
9:00 AM
Tue, May 5
61 °FHaze.No wind72%29.95 "Hg2 mi
8:00 AM57 °FHaze.No wind77%29.92 "Hg2 mi
7:00 AM54 °FFog.No wind82%29.89 "Hg2 mi
6:00 AM54 °FHaze.No wind82%29.89 "Hg3 mi
5:00 AM54 °FHaze.No wind82%29.89 "Hg3 mi
4:00 AM54 °FHaze.No wind77%29.89 "Hg3 mi
3:00 AM54 °FHaze.No wind77%29.89 "Hg3 mi
2:00 AM54 °FHaze.5 mph77%29.89 "Hg3 mi
1:00 AM54 °FHaze.5 mph77%29.89 "Hg3 mi
12:00 AM61 °FHaze.6 mph39%29.92 "Hg3 mi
11:00 PM
Mon, May 4
61 °FClear.9 mph36%29.92 "Hg4 mi
10:00 PM61 °FClear.No wind42%29.92 "Hg4 mi
9:00 PM61 °FClear.6 mph59%29.89 "Hg4 mi
8:00 PM63 °FClear.9 mph59%29.92 "Hg4 mi
7:00 PM64 °FClear.9 mph56%29.89 "Hg4 mi
6:00 PM68 °FClear.17 mph46%29.89 "Hg4 mi
5:00 PM70 °FClear.14 mph43%29.89 "Hg4 mi
4:00 PM72 °FClear.14 mph38%29.89 "Hg4 mi
3:00 PM72 °FClear.12 mph38%29.92 "Hg4 mi
2:00 PM72 °FClear.15 mph36%29.89 "Hg4 mi
1:00 PM70 °FClear.14 mph38%29.92 "Hg4 mi
12:00 PM68 °FClear.15 mph30%29.92 "Hg4 mi
11:00 AM66 °FClear.15 mph37%29.92 "Hg4 mi
10:00 AM64 °FPassing clouds.9 mph46%29.92 "Hg4 mi
Weather by CustomWeather, © 2015

See weather overviewHow to use our weather pages